Flag for Canada Weather past 2 weeks in Norfolk, Ontario, Canada

Now
48 °F

Cool.


Feels Like: 46 °F
Forecast: 40 / 61 °F
Wind: 6 mph from East

Location: Delhi CS

Current Time: Apr 19, 2015 at 10:50:59 AM

Latest Report: Apr 19, 2015 at 10:00 AM


Visibility: N/A

Pressure: 30.12 "Hg

Humidity: 52%

Dew point: 31 °F

Location of NorfolkLocation

Historic Weather in Norfolk — Graph

°F

Norfolk temperature yesterday

Maximum temperature yesterday: 69 °F (at 12:00 PM)
Minimum temperature yesterday: 42 °F (at 3:00 AM)
Average temperature yesterday: 55 °F

Past Weeks' High & Low Weather Summary

 TemperatureHumidityPressure
High75 °F (Apr 13, 3:00 PM)100% (Apr 5, 10:00 AM)30.37 "Hg (Apr 5, 10:00 AM)
Low27 °F (Apr 5, 1:00 AM)18% (Apr 18, 3:00 PM)29.47 "Hg (Apr 10, 8:00 AM)
Average45 °F72%30.09 "Hg
* Reported Apr 4 9:00 AM — Apr 19 9:00 AM, Norfolk, Weather by CustomWeather, © 2015

Note: Actual official high and low records may vary slightly from our data, if they occured in-between our weather recording intervals... More about our weather records

Advertising

Norfolk weather history for previous 24 hours

 ConditionsComfort  
Time TempWeatherWind HumidityBarometerVisibility
9:00 AM
Sun, Apr 19
45 °FQuite cool.5 mph61%30.15 "HgN/A
8:00 AM42 °FQuite cool.6 mph65%30.15 "HgN/A
7:00 AM40 °FChilly.3 mph67%30.15 "HgN/A
6:00 AM41 °FQuite cool.3 mph61%30.14 "HgN/A
5:00 AM43 °FQuite cool.3 mph58%30.14 "HgN/A
4:00 AM44 °FQuite cool.3 mph51%30.14 "HgN/A
3:00 AM44 °FQuite cool.2 mph55%30.14 "HgN/A
2:00 AM44 °FQuite cool.2 mph60%30.15 "HgN/A
1:00 AM44 °FQuite cool.1 mph58%30.16 "HgN/A
12:00 AM47 °FCool.2 mph53%30.14 "HgN/A
11:00 PM
Sat, Apr 18
49 °FCool.3 mph47%30.14 "HgN/A
10:00 PM50 °FCool.2 mph43%30.14 "HgN/A
9:00 PM55 °FCool.3 mph31%30.13 "HgN/A
8:00 PM58 °FRefreshingly cool.3 mph25%30.10 "HgN/A
7:00 PM63 °FMild.6 mph21%30.09 "HgN/A
6:00 PM64 °FMild.6 mph19%30.10 "HgN/A
5:00 PM66 °FMild.7 mph22%30.08 "HgN/A
4:00 PM67 °FMild.10 mph18%30.06 "HgN/A
3:00 PM68 °FMild.12 mph18%30.04 "HgN/A
2:00 PM69 °FMild.12 mph23%30.03 "HgN/A
1:00 PM68 °FMild.16 mph30%30.03 "HgN/A
12:00 PM69 °FMild.13 mph36%30.02 "HgN/A
11:00 AM67 °FMild.14 mph42%30.00 "HgN/A
10:00 AM64 °FMild.7 mph53%29.99 "HgN/A
Weather by CustomWeather, © 2015

See weather overviewHow to use our weather pages